Location: Peebles
(55.6412°N, 3.1714°W)
Time: 19:34:14
(UTC+01:00)

deb Explorer IX - All Passes

Search period start: 02 October 2022 00:00
Search period end: 12 October 2022 00:00
Orbit: 531 x 1064 km, 38.8° (Epoch: 02 October)

Date Brightness Start Highest point End Pass type
(mag) Time Alt. Az. Time Alt. Az. Time Alt. Az.
02 Oct - 08:29:58 10° S 08:31:30 11° SSE 08:33:05 10° SE daylight
02 Oct - 10:13:06 10° SSW 10:16:29 16° S 10:20:06 10° SE daylight
02 Oct - 11:59:05 10° SW 12:01:38 13° SSW 12:04:16 10° S daylight
03 Oct - 09:42:53 10° SSW 09:46:00 15° S 09:49:20 10° SE daylight
03 Oct - 11:28:42 10° SW 11:31:07 12° SSW 11:33:38 10° S daylight
04 Oct - 09:12:42 10° SSW 09:15:30 14° S 09:18:31 10° SE daylight
04 Oct - 10:58:20 10° SW 11:00:36 12° SSW 11:02:58 10° S daylight
05 Oct - 08:42:31 10° SSW 08:45:01 13° S 08:47:40 10° SSE daylight
05 Oct - 10:28:01 10° SSW 10:30:05 12° SSW 10:32:15 10° S daylight
06 Oct - 08:12:25 10° SSW 08:14:33 12° S 08:16:46 10° SSE daylight
06 Oct - 09:57:44 10° SSW 09:59:34 12° SSW 10:01:28 10° S daylight
07 Oct - 07:42:23 10° SSW 07:44:03 12° S 07:45:49 10° SSE daylight
07 Oct - 09:27:31 10° SSW 09:29:03 11° S 09:30:39 10° S daylight
08 Oct - 07:12:29 10° S 07:13:35 11° S 07:14:42 10° SSE daylight
08 Oct - 08:57:22 10° SSW 08:58:33 11° S 08:59:44 10° S daylight
09 Oct - 08:27:26 10° SSW 08:28:02 10° S 08:28:38 10° S daylight
